Time,TemperatureF,DewpointF,PressureIn,WindDirection,WindDirectionDegrees,WindSpeedMPH,WindSpeedGustMPH,Humidity,HourlyPrecipIn,Conditions,Clouds,dailyrainin,SoftwareType,DateUTC
2013-08-04 00:01:00,67.3,53.0,30.00,SW,227,0.0,-999.0,60,-99.99,,,0.00,weatherlink.com 1.10,2013-08-04 07:01:00,
2013-08-04 00:16:00,67.0,52.0,30.00,SW,227,0.0,-999.0,60,-99.99,,,0.00,weatherlink.com 1.10,2013-08-04 07:16:00,
2013-08-04 00:31:00,66.9,54.0,30.00,SW,227,0.0,-999.0,64,-99.99,,,0.00,weatherlink.com 1.10,2013-08-04 07:31:00,
2013-08-04 00:46:00,67.0,51.0,29.99,SW,227,0.0,-999.0,56,-99.99,,,0.00,weatherlink.com 1.10,2013-08-04 07:46:00,
2013-08-04 01:01:00,67.4,53.0,29.99,SW,227,0.0,-999.0,60,-99.99,,,0.00,weatherlink.com 1.10,2013-08-04 08:01:00,
2013-08-04 01:16:00,67.3,54.0,29.99,SW,227,0.0,-999.0,62,-99.99,,,0.00,weatherlink.com 1.10,2013-08-04 08:16:00,
2013-08-04 01:31:00,66.8,53.0,29.99,SW,227,0.0,-999.0,62,-99.99,,,0.00,weatherlink.com 1.10,2013-08-04 08:31:00,
2013-08-04 01:46:00,66.8,52.0,29.99,SW,227,0.0,-999.0,59,-99.99,,,0.00,weatherlink.com 1.10,2013-08-04 08:46:00,
2013-08-04 02:01:00,67.2,49.0,29.99,SW,227,0.0,-999.0,52,-99.99,,,0.00,weatherlink.com 1.10,2013-08-04 09:01:00,
2013-08-04 02:16:00,67.0,51.0,29.99,SW,227,0.0,-999.0,57,-99.99,,,0.00,weatherlink.com 1.10,2013-08-04 09:16:00,
2013-08-04 02:31:00,66.6,53.0,29.98,SW,227,0.0,-999.0,61,-99.99,,,0.00,weatherlink.com 1.10,2013-08-04 09:31:00,
2013-08-04 02:46:00,66.5,52.0,29.98,SW,227,0.0,-999.0,61,-99.99,,,0.00,weatherlink.com 1.10,2013-08-04 09:46:00,
2013-08-04 03:01:00,66.6,51.0,29.97,SW,227,0.0,-999.0,58,-99.99,,,0.00,weatherlink.com 1.10,2013-08-04 10:01:00,
2013-08-04 03:16:00,66.6,52.0,29.97,SW,227,0.0,-999.0,59,-99.99,,,0.00,weatherlink.com 1.10,2013-08-04 10:16:00,
2013-08-04 03:31:00,66.0,52.0,29.97,SW,227,0.0,-999.0,60,-99.99,,,0.00,weatherlink.com 1.10,2013-08-04 10:31:00,
2013-08-04 03:46:00,65.4,53.0,29.97,SW,227,0.0,-999.0,64,-99.99,,,0.00,weatherlink.com 1.10,2013-08-04 10:46:00,
2013-08-04 04:01:00,64.5,53.0,29.96,SW,227,0.0,-999.0,66,-99.99,,,0.00,weatherlink.com 1.10,2013-08-04 11:01:00,
2013-08-04 04:16:00,64.0,53.0,29.96,SW,227,0.0,-999.0,68,-99.99,,,0.00,weatherlink.com 1.10,2013-08-04 11:16:00,
2013-08-04 04:31:00,64.3,46.0,29.97,SW,227,0.0,-999.0,51,-99.99,,,0.00,weatherlink.com 1.10,2013-08-04 11:31:00,
2013-08-04 04:46:00,65.0,45.0,29.97,SW,227,0.0,-999.0,49,-99.99,,,0.00,weatherlink.com 1.10,2013-08-04 11:46:00,
2013-08-04 05:01:00,65.2,52.0,29.97,SW,227,0.0,-999.0,62,-99.99,,,0.00,weatherlink.com 1.10,2013-08-04 12:01:00,
2013-08-04 05:16:00,64.6,45.0,29.97,SW,227,0.0,-999.0,49,-99.99,,,0.00,weatherlink.com 1.10,2013-08-04 12:16:00,
2013-08-04 05:31:00,64.9,44.0,29.97,SW,227,0.0,-999.0,47,-99.99,,,0.00,weatherlink.com 1.10,2013-08-04 12:31:00,
2013-08-04 05:46:00,65.8,43.0,29.98,SW,227,0.0,-999.0,44,-99.99,,,0.00,weatherlink.com 1.10,2013-08-04 12:46:00,
2013-08-04 06:01:00,65.8,52.0,29.98,SW,227,0.0,-999.0,61,-99.99,,,0.00,weatherlink.com 1.10,2013-08-04 13:01:00,
2013-08-04 06:16:00,64.9,52.0,29.99,SW,227,0.0,-999.0,64,-99.99,,,0.00,weatherlink.com 1.10,2013-08-04 13:16:00,
2013-08-04 06:31:00,64.9,42.0,29.99,SW,227,0.0,-999.0,44,-99.99,,,0.00,weatherlink.com 1.10,2013-08-04 13:31:00,
2013-08-04 06:46:00,65.3,44.0,29.99,SW,227,0.0,-999.0,46,-99.99,,,0.00,weatherlink.com 1.10,2013-08-04 13:46:00,
2013-08-04 07:01:00,66.1,48.0,29.99,SW,227,0.0,-999.0,53,-99.99,,,0.00,weatherlink.com 1.10,2013-08-04 14:01:00,
2013-08-04 07:31:00,67.3,53.0,30.00,SW,227,0.0,-999.0,61,-99.99,,,0.00,weatherlink.com 1.10,2013-08-04 14:31:00,
2013-08-04 07:46:00,67.4,53.0,30.01,SW,227,0.0,-999.0,61,-99.99,,,0.00,weatherlink.com 1.10,2013-08-04 14:46:00,
2013-08-04 08:01:00,67.1,53.0,30.01,SW,227,0.0,-999.0,61,-99.99,,,0.00,weatherlink.com 1.10,2013-08-04 15:01:00,
2013-08-04 08:16:00,67.2,53.0,30.01,SW,227,0.0,-999.0,60,-99.99,,,0.00,weatherlink.com 1.10,2013-08-04 15:16:00,
2013-08-04 08:31:00,68.2,53.0,30.01,SW,227,0.0,-999.0,59,-99.99,,,0.00,weatherlink.com 1.10,2013-08-04 15:31:00,
2013-08-04 08:46:00,69.1,54.0,30.01,SW,227,0.0,-999.0,58,-99.99,,,0.00,weatherlink.com 1.10,2013-08-04 15:46:00,
2013-08-04 09:01:00,69.7,54.0,30.01,SW,227,0.0,-999.0,58,-99.99,,,0.00,weatherlink.com 1.10,2013-08-04 16:01:00,
2013-08-04 09:16:00,70.3,56.0,30.01,SW,227,0.0,-999.0,60,-99.99,,,0.00,weatherlink.com 1.10,2013-08-04 16:16:00,
2013-08-04 09:46:00,71.9,56.0,30.02,SW,227,0.0,-999.0,58,-99.99,,,0.00,weatherlink.com 1.10,2013-08-04 16:46:00,
2013-08-04 10:01:00,71.2,56.0,30.02,SW,227,0.0,-999.0,59,-99.99,,,0.00,weatherlink.com 1.10,2013-08-04 17:01:00,
2013-08-04 10:16:00,70.7,56.0,30.02,SW,227,0.0,-999.0,60,-99.99,,,0.00,weatherlink.com 1.10,2013-08-04 17:16:00,
2013-08-04 11:02:00,71.9,57.0,30.02,SW,227,0.0,-999.0,59,-99.99,,,0.00,weatherlink.com 1.10,2013-08-04 18:02:00,
2013-08-04 11:46:00,74.5,59.0,30.02,SW,227,0.0,-999.0,58,-99.99,,,0.00,weatherlink.com 1.10,2013-08-04 18:46:00,
2013-08-04 12:51:00,77.3,59.0,30.01,SW,227,0.0,-999.0,54,-99.99,,,0.00,weatherlink.com 1.10,2013-08-04 19:51:00,
2013-08-04 13:23:00,74.9,59.0,30.01,SW,226,0.0,-999.0,59,-99.99,,,0.00,weatherlink.com 1.10,2013-08-04 20:23:00,
2013-08-04 14:11:00,76.3,59.0,30.01,SW,225,0.0,-999.0,56,-99.99,,,0.00,weatherlink.com 1.10,2013-08-04 21:11:00,
2013-08-04 14:16:00,76.5,59.0,30.01,SW,225,0.0,-999.0,55,-99.99,,,0.00,weatherlink.com 1.10,2013-08-04 21:16:00,
2013-08-04 14:31:00,77.8,59.0,30.00,SW,225,0.0,-999.0,52,-99.99,,,0.00,weatherlink.com 1.10,2013-08-04 21:31:00,
2013-08-04 15:16:00,78.8,59.0,29.99,SW,225,0.0,-999.0,50,-99.99,,,0.00,weatherlink.com 1.10,2013-08-04 22:16:00,
2013-08-04 15:46:00,79.0,57.0,29.99,SW,228,0.0,-999.0,47,-99.99,,,0.00,weatherlink.com 1.10,2013-08-04 22:46:00,
2013-08-04 16:01:00,78.9,48.0,29.99,SW,228,0.0,-999.0,34,-99.99,,,0.00,weatherlink.com 1.10,2013-08-04 23:01:00,
2013-08-04 16:16:00,79.6,46.0,29.99,SW,229,4.0,-999.0,31,-99.99,,,0.00,weatherlink.com 1.10,2013-08-04 23:16:00,
2013-08-04 16:34:00,79.3,44.0,29.98,SW,232,2.0,-999.0,29,-99.99,,,0.00,weatherlink.com 1.10,2013-08-04 23:34:00,
2013-08-04 16:45:00,79.2,49.0,29.98,SW,232,0.0,-999.0,35,-99.99,,,0.00,weatherlink.com 1.10,2013-08-04 23:45:00,
2013-08-04 17:16:00,77.6,50.0,29.98,SW,233,0.0,-999.0,38,-99.99,,,0.00,weatherlink.com 1.10,2013-08-05 00:16:00,
2013-08-04 17:31:00,77.5,51.0,29.97,SW,234,1.0,-999.0,40,-99.99,,,0.00,weatherlink.com 1.10,2013-08-05 00:31:00,
2013-08-04 17:46:00,77.7,51.0,29.97,WSW,238,2.0,-999.0,40,-99.99,,,0.00,weatherlink.com 1.10,2013-08-05 00:46:00,
2013-08-04 18:01:00,77.2,50.0,29.97,WSW,249,0.0,-999.0,39,-99.99,,,0.00,weatherlink.com 1.10,2013-08-05 01:01:00,
2013-08-04 18:16:00,79.0,52.0,29.96,WSW,249,0.0,-999.0,39,-99.99,,,0.00,weatherlink.com 1.10,2013-08-05 01:16:00,
2013-08-04 18:31:00,78.5,52.0,29.96,WSW,249,0.0,-999.0,40,-99.99,,,0.00,weatherlink.com 1.10,2013-08-05 01:31:00,
2013-08-04 19:01:00,77.4,49.0,29.97,WSW,249,0.0,-999.0,37,-99.99,,,0.00,weatherlink.com 1.10,2013-08-05 02:01:00,
2013-08-04 21:31:00,73.8,14.0,30.00,WSW,249,0.0,-999.0,10,-99.99,,,0.00,weatherlink.com 1.10,2013-08-05 04:31:00,
2013-08-04 22:01:00,74.3,16.0,30.00,WSW,249,0.0,-999.0,11,-99.99,,,0.00,weatherlink.com 1.10,2013-08-05 05:01:00,
2013-08-04 22:16:00,73.6,16.0,30.00,WSW,249,0.0,-999.0,11,-99.99,,,0.00,weatherlink.com 1.10,2013-08-05 05:16:00,
2013-08-04 22:32:00,73.3,26.0,30.00,WSW,249,0.0,-999.0,17,-99.99,,,0.00,weatherlink.com 1.10,2013-08-05 05:32:00,
2013-08-04 23:01:00,72.7,21.0,30.00,WSW,249,0.0,-999.0,14,-99.99,,,0.00,weatherlink.com 1.10,2013-08-05 06:01:00,
2013-08-04 23:31:00,73.1,27.0,30.00,WSW,249,0.0,-999.0,18,-99.99,,,0.00,weatherlink.com 1.10,2013-08-05 06:31:00,
2013-08-04 23:46:00,72.4,13.0,30.00,WSW,249,0.0,-999.0,10,-99.99,,,0.00,weatherlink.com 1.10,2013-08-05 06:46:00,